Millville, NJ

7:32 PM EST on February 26, 2017 (GMT -0500)
Millville Municipal

Weather History for KMIV - December, 2013

Change the Weather History Date:

Thursday, December 5, 2013

  Actual Average Record
Temperature  
Mean Temperature 52 °F -  
Max Temperature 57 °F 47 °F 72 °F (1982)
Min Temperature 48 °F 30 °F 13 °F (1966)
Degree Days  
Heating Degree Days 12    
Growing Degree Days 2 (Base 50)    
Moisture  
Dew Point 53 °F    
Average Humidity 98    
Maximum Humidity 100    
Minimum Humidity 89    
Precipitation  
Precipitation 0.00 in - - ()
Sea Level Pressure  
Sea Level Pressure 30.05 in    
Wind  
Wind Speed 2 mph (SSE)    
Max Wind Speed 14 mph    
Max Gust Speed -    
Visibility 4 miles    
Events Fog , Rain    
Averages and records for this station are not official NWS values.
T = Trace of Precipitation, MM = Missing Value Source: NWS Daily Summary

Daily Weather History Graph

Daily Weather History Graph

Search for Another Location

Airport or City:

Trip Planner

Search our weather history database for the weather conditions in past years. The results will help you decide how hot, cold, wet, or windy it might be!

Date:

Astronomy

Dec. 05, 2013 Rise Set
Actual Time 7:05 AM EST 4:36 PM EST
Civil Twilight 6:35 AM EST 5:06 PM EST
Nautical Twilight 6:01 AM EST 5:40 PM EST
Astronomical Twilight 5:29 AM EST 6:12 PM EST
Moon 9:23 AM EST (12/5) 7:54 PM EST (12/5)
Length of Visible Light 10h 31m
Length of Day
9h 31m
Waxing Crescent, 10% of the Moon is Illuminated
Dec 5
Waxing Crescent
Dec 9
First Quarter
Dec 17
Full
Dec 25
Last Quarter
Jan 1
New

Hourly Weather History & Observations

Time (EST) Temp. Dew Point Humidity Pressure Visibility Wind Dir Wind Speed Gust Speed Precip Events Conditions
12:12 AM 51.1 °F 50.0 °F 96% 30.11 in 7.0 mi Calm Calm - 0.00 in Rain Light Rain
12:20 AM 51.1 °F 50.0 °F 96% 30.11 in 8.0 mi Calm Calm - 0.00 in Rain Light Rain
12:50 AM 51.8 °F 50.0 °F 94% 30.10 in 6.0 mi Calm Calm - 0.00 in   Overcast
12:54 AM 51.1 °F 50.0 °F 96% 30.10 in 6.0 mi ESE 3.5 mph - 0.00 in   Overcast
1:09 AM 51.1 °F 51.1 °F 100% 30.09 in 1.8 mi Calm Calm - N/A   Overcast
1:22 AM 51.1 °F 51.1 °F 100% 30.10 in 0.5 mi Calm Calm - N/A Fog Fog
1:54 AM 52.0 °F 52.0 °F 100% 30.10 in 0.8 mi Calm Calm - N/A   Mist
2:33 AM 52.0 °F 52.0 °F 100% 30.10 in 1.0 mi Calm Calm - N/A   Mist
2:46 AM 52.0 °F 52.0 °F 100% 30.09 in 0.8 mi Calm Calm - N/A   Mist
2:54 AM 52.0 °F 52.0 °F 100% 30.09 in 0.8 mi Calm Calm - N/A   Mist
3:18 AM 52.0 °F 52.0 °F 100% 30.09 in 0.2 mi ESE 3.5 mph - N/A Fog Fog
3:54 AM 51.1 °F 51.1 °F 100% 30.07 in 0.2 mi Calm Calm - N/A Fog Fog
4:54 AM 50.0 °F 50.0 °F 100% 30.08 in 0.2 mi Calm Calm - N/A Fog Fog
5:26 AM 48.9 °F 48.9 °F 100% 30.07 in 0.2 mi ESE 4.6 mph - N/A Fog Fog
5:35 AM 48.0 °F 48.0 °F 100% 30.08 in 0.2 mi Calm Calm - N/A Fog Fog
5:54 AM 48.9 °F 48.9 °F 100% 30.07 in 0.2 mi Calm Calm - N/A Fog Fog
6:54 AM 48.9 °F 48.9 °F 100% 30.07 in 0.2 mi Calm Calm - N/A Fog Fog
7:54 AM 51.1 °F 51.1 °F 100% 30.08 in 0.2 mi SSE 4.6 mph - N/A Fog Fog
8:06 AM 51.1 °F 51.1 °F 100% 30.08 in 0.5 mi SE 5.8 mph - N/A Fog Fog
8:16 AM 52.0 °F 52.0 °F 100% 30.08 in 1.8 mi SE 5.8 mph - N/A   Overcast
8:24 AM 52.0 °F 52.0 °F 100% 30.07 in 2.0 mi SSE 5.8 mph - N/A   Overcast
8:54 AM 53.1 °F 53.1 °F 100% 30.09 in 3.0 mi Variable 3.5 mph - N/A   Overcast
9:54 AM 54.0 °F 54.0 °F 100% 30.10 in 10.0 mi Variable 4.6 mph - N/A   Overcast
10:00 AM 54.0 °F 54.0 °F 100% 30.10 in 10.0 mi Variable 6.9 mph - N/A   Overcast
10:54 AM 54.0 °F 53.1 °F 97% 30.08 in 10.0 mi Variable 4.6 mph - N/A   Overcast
11:27 AM 55.0 °F 54.0 °F 96% 30.07 in 10.0 mi SSW 6.9 mph - N/A   Overcast
11:54 AM 55.9 °F 54.0 °F 93% 30.05 in 8.0 mi Variable 4.6 mph - N/A   Overcast
12:54 PM 55.9 °F 55.0 °F 97% 30.02 in 5.0 mi Variable 5.8 mph - N/A   Overcast
1:54 PM 57.0 °F 55.0 °F 93% 30.01 in 7.0 mi Variable 5.8 mph - N/A   Overcast
2:16 PM 57.0 °F 55.0 °F 93% 30.00 in 7.0 mi SSE 4.6 mph - N/A   Overcast
2:54 PM 57.0 °F 55.0 °F 93% 29.99 in 7.0 mi South 4.6 mph - N/A   Overcast
3:54 PM 57.0 °F 54.0 °F 89% 30.00 in 9.0 mi Variable 3.5 mph - N/A   Overcast
4:54 PM 57.0 °F 55.0 °F 93% 30.01 in 7.0 mi Variable 3.5 mph - N/A   Overcast
5:09 PM 57.0 °F 55.0 °F 93% 30.01 in 8.0 mi Variable 3.5 mph - N/A   Overcast
5:54 PM 55.9 °F 54.0 °F 93% 29.99 in 4.0 mi SSE 5.8 mph - N/A   Overcast
6:33 PM 55.0 °F 54.0 °F 96% 30.00 in 4.0 mi South 3.5 mph - N/A   Overcast
6:54 PM 55.0 °F 54.0 °F 96% 30.00 in 4.0 mi South 3.5 mph - N/A   Overcast
7:54 PM 55.0 °F 55.0 °F 100% 30.01 in 3.0 mi Calm Calm - N/A   Overcast
8:40 PM 55.0 °F 55.0 °F 100% 30.01 in 4.0 mi Calm Calm - N/A   Overcast
8:54 PM 55.0 °F 55.0 °F 100% 30.00 in 4.0 mi SE 3.5 mph - N/A   Overcast
9:45 PM 54.0 °F 53.1 °F 97% 29.99 in 5.0 mi SSE 3.5 mph - N/A   Overcast
9:50 PM 51.8 °F 51.8 °F 100% 29.98 in 0.8 mi South 13.8 mph - N/A   Overcast
9:54 PM 54.0 °F 53.1 °F 97% 29.99 in 5.0 mi SSE 3.5 mph - N/A   Overcast
10:07 PM 53.1 °F 53.1 °F 100% 29.98 in 5.0 mi SSE 3.5 mph - N/A   Overcast
10:54 PM 55.0 °F 54.0 °F 96% 29.97 in 4.0 mi Calm Calm - N/A   Overcast
11:31 PM 55.9 °F 55.0 °F 97% 29.98 in 5.0 mi Calm Calm - N/A   Overcast
11:50 PM 55.4 °F 55.4 °F 100% 29.97 in 4.0 mi Calm Calm - N/A   Overcast
11:54 PM 55.9 °F 55.0 °F 97% 29.97 in 4.0 mi Variable 3.5 mph - N/A   Overcast